Regional Weather Roundup
Issued by NWS

Home | Current Version | Previous Version | Graphics & Text | Print | Product List | Glossary Off
Versions: 1 2 3 4 5 6 7 8 9 10 11 12 13 14 15 16 17 18 19 20 21 22 23 24 25 26 27 28 29 30 31 32 33 34 35 36 37 38 39 40 41 42 43 44 45 46 47 48 49 50

000
ASUS43 KMKX 271311
RWRWI

WISCONSIN REGIONAL WEATHER ROUNDUP
NATIONAL WEATHER SERVICE MILWAUKEE/SULLIVAN WI
800 AM CDT THU APR 27 2017

NOTE: "FAIR" INDICATES FEW OR NO CLOUDS BELOW 12,000 FEET WITH NO
SIGNIFICANT WEATHER AND/OR OBSTRUCTIONS TO VISIBILITY.

WIZ001-002-006>008-014>016-023>028-271400-
NORTHWEST WISCONSIN

CITY           SKY/WX    TMP DP  RH WIND       PRES   REMARKS
SUPERIOR ARPT  CLOUDY    26  22  84 CALM      29.55F
ASHLAND        CLOUDY    27  24  89 N12       29.52S WCI  17
HAYWARD        CLOUDY    28  23  81 N7        29.49S WCI  21
SIREN          CLOUDY    28  25  89 N5        29.52F WCI  23
CUMBERLAND     CLOUDY    28  27  93 N10       29.49S WCI  19
RICE LAKE      CLOUDY    30  27  87 N5        29.51S WCI  25
CHETEK         CLOUDY    31  28  89 NW5       29.48F WCI  26
LADYSMITH      CLOUDY    30  25  81 N9        29.48S WCI  22
EAU CLAIRE     CLOUDY    32  27  81 NW12      29.47S WCI  23
MENOMONIE      CLOUDY    33  29  83 NW8       29.49S WCI  26
NEW RICHMOND   CLOUDY    31  27  85 N12       29.52R WCI  22
OSCEOLA        CLOUDY    31  30  98 NW10      29.56R WCI  22
$$

WIZ003>005-009-010-017-018-271400-
NORTH CENTRAL WISCONSIN

CITY           SKY/WX    TMP DP  RH WIND       PRES   REMARKS
MANITOWISH WTR LGT SNOW  27  27 100 N8        29.41S WCI  18
ARBOR VITAE    LGT SNOW  32  30  93 N14       29.37F WCI  22
WOODRUFF       LGT SNOW  32  30  93 N14       29.37F WCI  22
RHINELANDER    MIX PCPN  31  29  92 NW9G16    29.36F FOG     WCI  23
EAGLE RIVER    LGT SNOW  29  28  96 N14       29.35F WCI  18
LAND O LAKES   LGT SNOW  29  28  94 N13G18    29.38F WCI  19
PHILLIPS       LGT SNOW  27  26  95 N6        29.43S WCI  20
TOMAHAWK       LGT SNOW  29  28  92 N10       29.38F WCI  20
MEDFORD        LGT SNOW  29  28  93 NW14      29.38F WCI  19
MERRILL        LGT SNOW  32  32  99 N7        29.37F WCI  26
$$

WIZ029-030-035-036-043>047-271400-
CENTRAL WISCONSIN

CITY           SKY/WX    TMP DP  RH WIND       PRES   REMARKS
WAUSAU         MIX PCPN  33  31  92 NW14      29.34F FOG     WCI  23
MOSINEE        LGT RAIN  32  32 100 NW13G22   29.36F WCI  22
MARSHFIELD     FRZ RAIN  32  29  88 NW17      29.37F FOG     WCI  21
STEVENS POINT  LGT RAIN  32  32 100 NW8       29.35S WCI  25
WAUPACA        RAIN      39  37  90 NW8       29.33S WCI  34
WAUTOMA        LGT RAIN  37  35  92 NW16      29.35S WCI  28
WISC RAPIDS    RAIN      34  33  96 NW13G22   29.38S FOG     WCI  25
CAMP DOUGLAS   SLEET     32  32 100 NW14      29.41R WCI  22
$$

WIZ011>013-019>022-031-037>040-048>050-271400-
NORTHEAST WISCONSIN

CITY           SKY/WX    TMP DP  RH WIND       PRES   REMARKS
ANTIGO         MIX PCPN  32  32  99 N13G18    29.32F WCI  22
SHAWANO        RAIN      39  37  91 NW6       29.32F WCI  35
OCONTO         CLOUDY    37  36  94 NW6       29.30S WCI  32
STURGEON BAY   LGT RAIN  40  39  97 N9        29.28F WCI  34
GREEN BAY      RAIN      41  40  96 N10       29.30F FOG
MANITOWOC      CLOUDY    45  43  93 N13       29.28R
APPLETON       LGT RAIN  41  39  93 N14       29.29F
CLINTONVILLE   RAIN      37  36  93 N6        29.31F WCI  33
OSHKOSH        RAIN      42  40  92 NW12      29.30R
$$

WIZ032>034-041-042-053>061-271400-
SOUTHWEST WISCONSIN

CITY           SKY/WX    TMP DP  RH WIND       PRES   REMARKS
LA CROSSE      CLOUDY    37  33  85 NW13      29.47R WCI  29
SPARTA         LGT SNOW  32  32 100 NW9       29.46R WCI  24
VIROQUA        CLOUDY    33  33 100 NW8       29.44R WCI  25
BOSCOBEL       LGT RAIN  36  34  92 SW6       29.48R FOG     WCI  31
PRAIRIE DU CHI CLOUDY    37  36  96 W13G18    29.50R WCI  28
PLATTEVILLE    CLOUDY    34  34 100 W13       29.48R WCI  25
$$

WIZ056-057-062-063-064-067-068-271400-
SOUTH CENTRAL WISCONSIN

CITY           SKY/WX    TMP DP  RH WIND       PRES   REMARKS
REEDSBURG      LGT RAIN  34  34 100 W9        29.40R WCI  26
BARABOO/DELLS  RAIN      35  34  96 W8        29.39R WCI  28
LONE ROCK      LGT RAIN  36  33  89 W15       29.44R FOG     WCI  27
MINERAL POINT  LGT SNOW  36  36 100 W13G18    29.45R WCI  27
MADISON        LGT RAIN  39  37  92 W8        29.37R WCI  33
MIDDLETON      CLOUDY    39  38  94 W14       29.39R WCI  31
WATERTOWN      LGT RAIN  41  41 100 W14G21    29.34R
MONROE         DRIZZLE   37  36  93 W21G26    29.42R WCI  27
JANESVILLE     CLOUDY    43  43 100 W12G17    29.38R
$$

WIZ051-052-058>065-066-070>072-271400-
SOUTHEAST WISCONSIN

CITY           SKY/WX    TMP DP  RH WIND       PRES   REMARKS
MILWAUKEE      LGT RAIN  48  46  93 W13       29.29R
WAUKESHA       CLOUDY    43  41  93 W17       29.32R
MILWAUKEE/TIMM LGT RAIN  45  41  87 W13       29.30R
RACINE         LGT RAIN  48  45  89 W10G21    29.33R FOG
KENOSHA        LGT RAIN  46  44  93 W20G25    29.35R FOG
FOND DU LAC    LGT RAIN  43  39  86 NW14      29.30S
SHEBOYGAN      LGT RAIN  48  46  93 N8        29.27S
WEST BEND      RAIN      43  43 100 W9        29.29R
JUNEAU         RAIN      40  38  94 W8        29.33R WCI  35
$$

LSZ147-162-271400-
LAKE SUPERIOR

STATION/POSITION TIME  TEMP    WIND        PRES    WAVE
                       AIR SEA DIR/SP/G            HT/PER
                 (UTC) (F)     (DEG/KT/KT) (MB)    (FT/S)
DEVILS ISLAND    1200   26     350/ 12/ 13 1001.1F
PORT WING        1240   27     350/ 11/ 13 1000.7S
SAXON HARBOR     1240   29      20/ 12/ 14  999.3S
$$

LMZ867-665-643>646-271400-
LAKE MICHIGAN

STATION/POSITION TIME  TEMP    WIND        PRES    WAVE
                       AIR SEA DIR/SP/G            HT/PER
                 (UTC) (F)     (DEG/KT/KT) (MB)    (FT/S)
CHAMBERS ISLAND  1240   38     360/ 15/ 18  992.2F
N MID LAKE BUOY  1250   38 37  360/ 10/ 12  993.2S   2/ 4
NORTHPORT PIER   1240   37     350/ 17/ 19  992.9S
KEWAUNEE LAKESHO 1242   44     330/  5/  9  991.3F
SHEBOYGAN LAKESH 1300   48     310/ 11/ 13  990.6F
PORT WASHINGTON  1240   47     290/  7/ 14  992.6S
MILWAUKEE LAKESH 1250   47     290/ 10/ 15   N/A
S MID LAKE BUOY  1150   49 42  160/ 17/ 21  992.2F   2/ 3
KENOSHA   LAKESH 1200   50     310/ 11/ 13  991.2S
$$

TC  - TEMPERATURE IN CELSIUS
VSB - VISIBILITY IN STATUTE MILES
WCI - WIND CHILL INDEX
HX  - HEAT INDEX




USA.gov is the U.S. government's official web portal to all federal, state and local government web resources and services.